,,Stat5,,Stat1,,Stat2,,Stat3,,Stat4,,Wind1,,Wind1,
time,status,PA1M_AVG,status,PR1M_SUM,status,RH1M_AVG,status,SR1M_AVG,status,TA1M_AVG,status,W1dAve1m,status,W1sAve1m,
2001-08-14, 00:00:00,VALID,920.004,VALID,0,VALID,91.5072,VALID,0.0169808,VALID,21.0159,VALID,41,VALID,0.0713141,
2001-08-14, 00:01:00,VALID,920.001,VALID,0,VALID,91.5098,VALID,0.0509425,VALID,21.0162,VALID,44,VALID,0.190173,
2001-08-14, 00:02:00,VALID,919.986,VALID,0,VALID,91.5365,VALID,0.0339617,VALID,21.0062,VALID,45,VALID,0.0799753,
2001-08-14, 00:03:00,VALID,919.959,VALID,0,VALID,91.4754,VALID,0.0169808,VALID,21.0003,VALID,45,VALID,0,
2001-08-14, 00:04:00,VALID,919.938,VALID,0,VALID,91.4169,VALID,0.0339617,VALID,20.9938,VALID,45,VALID,0,
2001-08-14, 00:05:00,VALID,919.916,VALID,0,VALID,91.2592,VALID,0.0169808,VALID,20.9968,VALID,45,VALID,0,
2001-08-14, 00:06:00,VALID,919.879,VALID,0,VALID,91.2376,VALID,0.0339617,VALID,20.9903,VALID,111,VALID,0.234766,
2001-08-14, 00:07:00,VALID,919.848,VALID,0,VALID,91.3279,VALID,0,VALID,20.9801,VALID,157,VALID,0.406836,
2001-08-14, 00:08:00,VALID,919.841,VALID,0,VALID,91.6191,VALID,0.0169808,VALID,20.9413,VALID,145,VALID,0.282853,
2001-08-14, 00:09:00,VALID,919.833,VALID,0,VALID,91.8925,VALID,0.0509425,VALID,20.926,VALID,124,VALID,0.206445,
2001-08-14, 00:10:00,VALID,919.835,VALID,0,VALID,91.9815,VALID,0.0169808,VALID,20.9063,VALID,121,VALID,0.350391,
2001-08-14, 00:11:00,VALID,919.843,VALID,0,VALID,91.8569,VALID,0.0169808,VALID,20.8837,VALID,109,VALID,0.416174,
2001-08-14, 00:12:00,VALID,919.846,VALID,0,VALID,92.0693,VALID,0.0169808,VALID,20.8705,VALID,109,VALID,0.0269097,
2001-08-14, 00:13:00,VALID,919.838,VALID,0,VALID,92.2358,VALID,0.0339617,VALID,20.8648,VALID,110,VALID,0.0160156,
2001-08-14, 00:14:00,VALID,919.837,VALID,0,VALID,92.2422,VALID,0,VALID,20.8522,VALID,110,VALID,0.201389,
2001-08-14, 00:15:00,VALID,919.819,VALID,0,VALID,92.2956,VALID,-0.0679233,VALID,20.8433,VALID,115,VALID,0.320713,
2001-08-14, 00:16:00,VALID,919.813,VALID,0,VALID,92.3134,VALID,-0.0339617,VALID,20.8462,VALID,136,VALID,0.346571,
2001-08-14, 00:17:00,VALID,919.789,VALID,0,VALID,92.4228,VALID,-0.0509425,VALID,20.8333,VALID,139,VALID,0.225391,
2001-08-14, 00:18:00,VALID,919.783,VALID,0,VALID,92.4507,VALID,-0.0849042,VALID,20.8333,VALID,141,VALID,0.489286,
2001-08-14, 00:19:00,VALID,919.78,VALID,0,VALID,92.4736,VALID,-0.0849042,VALID,20.8266,VALID,143,VALID,0.47973,
2001-08-14, 00:20:00,VALID,919.786,VALID,0,VALID,92.4546,VALID,-0.0849042,VALID,20.8301,VALID,153,VALID,0.818555,
2001-08-14, 00:21:00,VALID,919.787,VALID,0,VALID,92.5029,VALID,-0.0339617,VALID,20.8204,VALID,150,VALID,0.892795,
2001-08-14, 00:22:00,VALID,919.801,VALID,0,VALID,92.611,VALID,-0.0679233,VALID,20.7849,VALID,147,VALID,0.661258,
2001-08-14, 00:23:00,VALID,919.799,VALID,0,VALID,92.7788,VALID,-0.101885,VALID,20.7628,VALID,137,VALID,0.763097,
2001-08-14, 00:24:00,VALID,919.81,VALID,0,VALID,92.9403,VALID,-0.101885,VALID,20.7175,VALID,138,VALID,0.718973,
2001-08-14, 00:25:00,VALID,919.817,VALID,0,VALID,93.1043,VALID,-0.101885,VALID,20.6747,VALID,149,VALID,0.557492,
2001-08-14, 00:26:00,VALID,919.816,VALID,0,VALID,93.3014,VALID,-0.0849042,VALID,20.6556,VALID,148,VALID,0.367399,
2001-08-14, 00:27:00,VALID,919.817,VALID,0,VALID,93.3841,VALID,-0.101885,VALID,20.64,VALID,149,VALID,0.351768,
2001-08-14, 00:28:00,VALID,919.816,VALID,0,VALID,93.4578,VALID,-0.0849042,VALID,20.6335,VALID,156,VALID,0.479688,
2001-08-14, 00:29:00,VALID,919.814,VALID,0,VALID,93.5163,VALID,-0.0169808,VALID,20.6193,VALID,156,VALID,0.379006,
2001-08-14, 00:30:00,VALID,919.811,VALID,0,VALID,93.5316,VALID,0.0339617,VALID,20.6121,VALID,155,VALID,0.327888,
2001-08-14, 00:31:00,VALID,919.792,VALID,0,VALID,93.6092,VALID,0.0169808,VALID,20.6088,VALID,154,VALID,0.249566,
2001-08-14, 00:32:00,VALID,919.779,VALID,0,VALID,93.7287,VALID,0.0849042,VALID,20.622,VALID,153,VALID,0.0631168,
2001-08-14, 00:33:00,VALID,919.762,VALID,0,VALID,93.496,VALID,0.0169808,VALID,20.6287,VALID,148,VALID,0.0388622,
2001-08-14, 00:34:00,VALID,919.73,VALID,0,VALID,92.9734,VALID,0.0169808,VALID,20.5929,VALID,120,VALID,0.150195,
2001-08-14, 00:35:00,VALID,919.705,VALID,0,VALID,93.1425,VALID,0.0169808,VALID,20.5534,VALID,73,VALID,0.32567,
2001-08-14, 00:36:00,VALID,919.665,VALID,0,VALID,93.4655,VALID,0.0169808,VALID,20.548,VALID,69,VALID,0.491765,
2001-08-14, 00:37:00,VALID,919.634,VALID,0,VALID,93.6969,VALID,0,VALID,20.5351,VALID,65,VALID,0.535616,
2001-08-14, 00:38:00,VALID,919.625,VALID,0,VALID,93.7414,VALID,0.0169808,VALID,20.5415,VALID,63,VALID,0.495089,
2001-08-14, 00:39:00,VALID,919.626,VALID,0,VALID,93.5545,VALID,0.0169808,VALID,20.4995,VALID,58,VALID,0.351963,
2001-08-14, 00:40:00,VALID,919.635,VALID,0,VALID,93.3103,VALID,0.0339617,VALID,20.4309,VALID,56,VALID,0.270481,
2001-08-14, 00:41:00,VALID,919.641,VALID,0,VALID,93.5977,VALID,0,VALID,20.3929,VALID,56,VALID,0.243215,
2001-08-14, 00:42:00,VALID,919.643,VALID,0,VALID,93.7707,VALID,0.0339617,VALID,20.3348,VALID,53,VALID,0.241518,
2001-08-14, 00:43:00,VALID,919.65,VALID,0,VALID,94.0708,VALID,0.0169808,VALID,20.2893,VALID,50,VALID,0.123197,
2001-08-14, 00:44:00,VALID,919.649,VALID,0,VALID,94.4026,VALID,0.0169808,VALID,20.2602,VALID,50,VALID,0.0722064,
2001-08-14, 00:45:00,VALID,919.628,VALID,0,VALID,94.5273,VALID,0.0339617,VALID,20.257,VALID,51,VALID,0.105252,
2001-08-14, 00:46:00,VALID,919.619,VALID,0,VALID,94.7765,VALID,0.0509425,VALID,20.2478,VALID,51,VALID,0.114309,
2001-08-14, 00:47:00,VALID,919.609,VALID,0,VALID,94.8986,VALID,0.0169808,VALID,20.2409,VALID,51,VALID,0.16246,
2001-08-14, 00:48:00,VALID,919.612,VALID,0,VALID,94.615,VALID,0.0169808,VALID,20.2314,VALID,51,VALID,0.262305,
2001-08-14, 00:49:00,VALID,919.598,VALID,0,VALID,94.76,VALID,0,VALID,20.2053,VALID,69,VALID,0.526563,
2001-08-14, 00:50:00,VALID,919.592,VALID,0,VALID,95.0219,VALID,0.0169808,VALID,20.2056,VALID,98,VALID,0.588894,
2001-08-14, 00:51:00,VALID,919.587,VALID,0,VALID,95.0105,VALID,0.0339617,VALID,20.1924,VALID,117,VALID,0.646599,
2001-08-14, 00:52:00,VALID,919.586,VALID,0,VALID,95.0855,VALID,0.0169808,VALID,20.1867,VALID,134,VALID,0.752232,
2001-08-14, 00:53:00,VALID,919.579,VALID,0,VALID,95.2572,VALID,0.0169808,VALID,20.1539,VALID,144,VALID,0.736779,
2001-08-14, 00:54:00,VALID,919.566,VALID,0,VALID,95.3246,VALID,0.0169808,VALID,20.1442,VALID,144,VALID,0.738176,
2001-08-14, 00:55:00,VALID,919.563,VALID,0,VALID,95.5039,VALID,0.0339617,VALID,20.1372,VALID,149,VALID,0.909745,
2001-08-14, 00:56:00,VALID,919.569,VALID,0,VALID,95.6298,VALID,0,VALID,20.1507,VALID,149,VALID,0.681696,
2001-08-14, 00:57:00,VALID,919.571,VALID,0,VALID,95.5242,VALID,0,VALID,20.1671,VALID,117,VALID,0.328926,
2001-08-14, 00:58:00,VALID,919.562,VALID,0,VALID,95.3207,VALID,-0.0169808,VALID,20.1611,VALID,127,VALID,0.466146,
2001-08-14, 00:59:00,VALID,919.563,VALID,0,VALID,95.5458,VALID,0,VALID,20.1609,VALID,97,VALID,0.431424,
2001-08-14, 01:00:00,VALID,919.546,VALID,0,VALID,95.0321,VALID,0,VALID,20.1579,VALID,49,VALID,0.642681,
2001-08-14, 01:01:00,VALID,919.534,VALID,0,VALID,94.8782,VALID,0.0169808,VALID,20.1286,VALID,59,VALID,0.576923,
2001-08-14, 01:02:00,VALID,919.517,VALID,0,VALID,95.1605,VALID,0,VALID,20.1383,VALID,75,VALID,0.657812,
2001-08-14, 01:03:00,VALID,919.513,VALID,0,VALID,95.3564,VALID,0.0169808,VALID,20.1641,VALID,72,VALID,0.54308,
2001-08-14, 01:04:00,VALID,919.496,VALID,0,VALID,95.2661,VALID,0.0169808,VALID,20.1641,VALID,66,VALID,0.501689,
2001-08-14, 01:05:00,VALID,919.493,VALID,0,VALID,95.2673,VALID,0,VALID,20.1579,VALID,63,VALID,0.726792,
2001-08-14, 01:06:00,VALID,919.48,VALID,0,VALID,95.3576,VALID,0,VALID,20.2031,VALID,58,VALID,0.682143,
2001-08-14, 01:07:00,VALID,919.472,VALID,0,VALID,94.9151,VALID,0,VALID,20.2287,VALID,41,VALID,0.540064,
2001-08-14, 01:08:00,VALID,919.476,VALID,0,VALID,94.4306,VALID,0,VALID,20.1927,VALID,41,VALID,0.568201,
2001-08-14, 01:09:00,VALID,919.467,VALID,0,VALID,94.3594,VALID,0.0169808,VALID,20.1643,VALID,41,VALID,0.568462,
2001-08-14, 01:10:00,VALID,919.448,VALID,0,VALID,94.4599,VALID,-0.0169808,VALID,20.1154,VALID,45,VALID,0.702232,
2001-08-14, 01:11:00,VALID,919.435,VALID,0,VALID,95.0435,VALID,0,VALID,20.145,VALID,52,VALID,0.746995,
2001-08-14, 01:12:00,VALID,919.409,VALID,0,VALID,95.1923,VALID,-0.0169808,VALID,20.1609,VALID,59,VALID,0.991714,
2001-08-14, 01:13:00,VALID,919.396,VALID,0,VALID,95.0283,VALID,0,VALID,20.2061,VALID,63,VALID,0.954427,
2001-08-14, 01:14:00,VALID,919.385,VALID,0,VALID,94.7307,VALID,-0.0679233,VALID,20.2558,VALID,65,VALID,0.924137,
2001-08-14, 01:15:00,VALID,919.388,VALID,0,VALID,94.451,VALID,-0.118866,VALID,20.2822,VALID,65,VALID,0.716346,
2001-08-14, 01:16:00,VALID,919.399,VALID,0,VALID,94.0898,VALID,-0.118866,VALID,20.3013,VALID,65,VALID,0.529883,
2001-08-14, 01:17:00,VALID,919.392,VALID,0,VALID,93.4108,VALID,-0.0849042,VALID,20.2787,VALID,74,VALID,0.416964,
2001-08-14, 01:18:00,VALID,919.407,VALID,0,VALID,93.6575,VALID,-0.101885,VALID,20.2566,VALID,93,VALID,0.554688,
2001-08-14, 01:19:00,VALID,919.405,VALID,0,VALID,93.9283,VALID,-0.118866,VALID,20.2278,VALID,95,VALID,0.610294,
2001-08-14, 01:20:00,VALID,919.386,VALID,0,VALID,94.2348,VALID,-0.101885,VALID,20.186,VALID,103,VALID,0.577679,
2001-08-14, 01:21:00,VALID,919.376,VALID,0,VALID,94.2818,VALID,-0.0849042,VALID,20.1602,VALID,114,VALID,0.59355,
2001-08-14, 01:22:00,VALID,919.36,VALID,0,VALID,94.5794,VALID,-0.101885,VALID,20.1107,VALID,125,VALID,0.550465,
2001-08-14, 01:23:00,VALID,919.341,VALID,0,VALID,94.7269,VALID,-0.101885,VALID,20.111,VALID,135,VALID,0.537007,
2001-08-14, 01:24:00,VALID,919.346,VALID,0,VALID,94.9622,VALID,-0.101885,VALID,20.0983,VALID,138,VALID,0.459821,
2001-08-14, 01:25:00,VALID,919.333,VALID,0,VALID,95.0295,VALID,-0.101885,VALID,20.0854,VALID,138,VALID,0.146434,
2001-08-14, 01:26:00,VALID,919.362,VALID,0,VALID,95.0143,VALID,-0.0849042,VALID,20.0759,VALID,137,VALID,0.250947,
2001-08-14, 01:27:00,VALID,919.357,VALID,0,VALID,94.5756,VALID,-0.0849042,VALID,20.0304,VALID,124,VALID,0.417101,
2001-08-14, 01:28:00,VALID,919.359,VALID,0,VALID,95.1745,VALID,-0.101885,VALID,19.9947,VALID,112,VALID,0.661801,
2001-08-14, 01:29:00,VALID,919.358,VALID,0,VALID,95.7137,VALID,-0.0849042,VALID,20.0076,VALID,108,VALID,0.795072,
2001-08-14, 01:30:00,VALID,919.352,VALID,0,VALID,95.982,VALID,-0.0849042,VALID,20.0242,VALID,107,VALID,0.84707,
2001-08-14, 01:31:00,VALID,919.372,VALID,0,VALID,96.1473,VALID,-0.101885,VALID,20.027,VALID,107,VALID,0.913616,
2001-08-14, 01:32:00,VALID,919.359,VALID,0,VALID,96.0507,VALID,-0.101885,VALID,20.0307,VALID,107,VALID,0.933066,
2001-08-14, 01:33:00,VALID,919.36,VALID,0,VALID,96.0723,VALID,-0.0679233,VALID,20.0108,VALID,114,VALID,0.87477,
2001-08-14, 01:34:00,VALID,919.371,VALID,0,VALID,95.8154,VALID,-0.101885,VALID,19.9822,VALID,116,VALID,0.737946,
2001-08-14, 01:35:00,VALID,919.373,VALID,0,VALID,95.6832,VALID,-0.101885,VALID,19.9467,VALID,119,VALID,0.670272,
2001-08-14, 01:36:00,VALID,919.367,VALID,0,VALID,95.7734,VALID,-0.0849042,VALID,19.9241,VALID,124,VALID,0.917019,
2001-08-14, 01:37:00,VALID,919.372,VALID,0,VALID,95.7912,VALID,-0.101885,VALID,19.9176,VALID,125,VALID,0.805304,
2001-08-14, 01:38:00,VALID,919.369,VALID,0,VALID,95.8103,VALID,-0.0849042,VALID,19.9112,VALID,126,VALID,0.835714,
2001-08-14, 01:39:00,VALID,919.35,VALID,0,VALID,95.7505,VALID,-0.101885,VALID,19.8853,VALID,124,VALID,0.752804,
2001-08-14, 01:40:00,VALID,919.347,VALID,0,VALID,95.748,VALID,-0.0849042,VALID,19.8915,VALID,123,VALID,0.834754,
2001-08-14, 01:41:00,VALID,919.343,VALID,0,VALID,95.673,VALID,-0.0339617,VALID,19.8814,VALID,131,VALID,0.588542,
2001-08-14, 01:42:00,VALID,919.319,VALID,0,VALID,95.6336,VALID,-0.101885,VALID,19.8988,VALID,132,VALID,0.35074,
2001-08-14, 01:43:00,VALID,919.3,VALID,0,VALID,95.631,VALID,-0.0849042,VALID,19.8983,VALID,122,VALID,0.432091,
2001-08-14, 01:44:00,VALID,919.284,VALID,0,VALID,95.5471,VALID,-0.0339617,VALID,19.8776,VALID,123,VALID,0.627148,
2001-08-14, 01:45:00,VALID,919.272,VALID,0,VALID,95.3767,VALID,-0.0169808,VALID,19.8744,VALID,125,VALID,0.698884,
2001-08-14, 01:46:00,VALID,919.242,VALID,0,VALID,95.5852,VALID,0.0169808,VALID,19.8682,VALID,135,VALID,0.898015,
2001-08-14, 01:47:00,VALID,919.225,VALID,0,VALID,95.6755,VALID,0,VALID,19.8744,VALID,134,VALID,1.22794,
2001-08-14, 01:48:00,VALID,919.201,VALID,0,VALID,95.7467,VALID,0,VALID,19.9097,VALID,136,VALID,1.11071,
2001-08-14, 01:49:00,VALID,919.188,VALID,0,VALID,95.5649,VALID,0,VALID,19.9484,VALID,109,VALID,0.722451,
2001-08-14, 01:50:00,VALID,919.2,VALID,0,VALID,95.364,VALID,0,VALID,19.9581,VALID,114,VALID,0.777238,
2001-08-14, 01:51:00,VALID,919.185,VALID,0,VALID,95.1186,VALID,0.0169808,VALID,19.9544,VALID,122,VALID,0.533717,
2001-08-14, 01:52:00,VALID,919.188,VALID,0,VALID,94.966,VALID,0.0169808,VALID,19.9551,VALID,127,VALID,0.495759,
2001-08-14, 01:53:00,VALID,919.167,VALID,0,VALID,95.1097,VALID,0,VALID,19.9487,VALID,132,VALID,0.674679,
2001-08-14, 01:54:00,VALID,919.143,VALID,0,VALID,95.2673,VALID,0.0339617,VALID,19.9546,VALID,128,VALID,1.01136,
2001-08-14, 01:55:00,VALID,919.124,VALID,0,VALID,95.4454,VALID,0.0169808,VALID,19.9619,VALID,134,VALID,1.06814,
2001-08-14, 01:56:00,VALID,919.102,VALID,0,VALID,95.4326,VALID,0.0509425,VALID,19.9584,VALID,134,VALID,0.806127,
2001-08-14, 01:57:00,VALID,919.076,VALID,0,VALID,95.3996,VALID,0,VALID,19.9288,VALID,133,VALID,0.605168,
2001-08-14, 01:58:00,VALID,919.076,VALID,0,VALID,95.3792,VALID,0.0169808,VALID,19.9196,VALID,124,VALID,0.44707,
2001-08-14, 01:59:00,VALID,919.088,VALID,0,VALID,95.3754,VALID,0,VALID,19.9002,VALID,103,VALID,0.460045,
2001-08-14, 02:00:00,VALID,919.089,VALID,0,VALID,95.4365,VALID,0,VALID,19.8779,VALID,119,VALID,0.767525,
2001-08-14, 02:01:00,VALID,919.091,VALID,0,VALID,95.4225,VALID,0,VALID,19.8647,VALID,113,VALID,0.751149,
2001-08-14, 02:02:00,VALID,919.098,VALID,0,VALID,95.2445,VALID,-0.0169808,VALID,19.8617,VALID,119,VALID,0.633036,
2001-08-14, 02:03:00,VALID,919.092,VALID,0,VALID,95.2635,VALID,0,VALID,19.8327,VALID,127,VALID,0.539463,
2001-08-14, 02:04:00,VALID,919.095,VALID,0,VALID,95.2343,VALID,0,VALID,19.8068,VALID,130,VALID,0.720861,
2001-08-14, 02:05:00,VALID,919.099,VALID,0,VALID,95.4708,VALID,-0.0339617,VALID,19.8235,VALID,133,VALID,0.634868,
2001-08-14, 02:06:00,VALID,919.094,VALID,0,VALID,95.3436,VALID,0,VALID,19.8389,VALID,133,VALID,0.567857,
2001-08-14, 02:07:00,VALID,919.097,VALID,0,VALID,95.1351,VALID,0,VALID,19.8329,VALID,141,VALID,0.733774,
2001-08-14, 02:08:00,VALID,919.095,VALID,0,VALID,95.0245,VALID,0,VALID,19.8466,VALID,128,VALID,0.594697,
2001-08-14, 02:09:00,VALID,919.107,VALID,0,VALID,94.9634,VALID,-0.0339617,VALID,19.8334,VALID,135,VALID,0.598307,
2001-08-14, 02:10:00,VALID,919.108,VALID,0,VALID,95.0372,VALID,-0.0339617,VALID,19.8394,VALID,121,VALID,0.73273,
2001-08-14, 02:11:00,VALID,919.12,VALID,0,VALID,95.0613,VALID,0,VALID,19.8322,VALID,112,VALID,0.719151,
2001-08-14, 02:12:00,VALID,919.147,VALID,0,VALID,94.9405,VALID,-0.0169808,VALID,19.8523,VALID,96,VALID,0.856055,
2001-08-14, 02:13:00,VALID,919.151,VALID,0,VALID,94.7523,VALID,-0.0339617,VALID,19.8717,VALID,104,VALID,0.663616,
2001-08-14, 02:14:00,VALID,919.159,VALID,0,VALID,94.5387,VALID,-0.0679233,VALID,19.8856,VALID,103,VALID,0.669552,
2001-08-14, 02:15:00,VALID,919.151,VALID,0,VALID,94.5107,VALID,-0.101885,VALID,19.857,VALID,109,VALID,0.528263,
2001-08-14, 02:16:00,VALID,919.147,VALID,0,VALID,94.7587,VALID,-0.118866,VALID,19.8605,VALID,123,VALID,0.508929,
2001-08-14, 02:17:00,VALID,919.139,VALID,0,VALID,94.76,VALID,-0.101885,VALID,19.8446,VALID,124,VALID,0.501803,
2001-08-14, 02:18:00,VALID,919.112,VALID,0,VALID,94.9571,VALID,-0.101885,VALID,19.8347,VALID,131,VALID,0.722762,
2001-08-14, 02:19:00,VALID,919.086,VALID,0,VALID,95.2139,VALID,-0.118866,VALID,19.8212,VALID,126,VALID,0.844161,
2001-08-14, 02:20:00,VALID,919.056,VALID,0,VALID,95.2979,VALID,-0.101885,VALID,19.8411,VALID,120,VALID,0.803125,
2001-08-14, 02:21:00,VALID,919.03,VALID,0,VALID,95.1745,VALID,-0.101885,VALID,19.825,VALID,119,VALID,0.80629,
2001-08-14, 02:22:00,VALID,919.023,VALID,0,VALID,95.205,VALID,-0.118866,VALID,19.8183,VALID,127,VALID,0.825047,
2001-08-14, 02:23:00,VALID,919.017,VALID,0,VALID,95.2368,VALID,-0.118866,VALID,19.812,VALID,124,VALID,0.807943,
2001-08-14, 02:24:00,VALID,919.003,VALID,0,VALID,95.0626,VALID,-0.101885,VALID,19.7797,VALID,127,VALID,0.634663,
2001-08-14, 02:25:00,VALID,918.998,VALID,0,VALID,95.1529,VALID,-0.135847,VALID,19.7541,VALID,130,VALID,0.74399,
2001-08-14, 02:26:00,VALID,919.004,VALID,0,VALID,95.0588,VALID,-0.101885,VALID,19.7179,VALID,113,VALID,0.622266,
2001-08-14, 02:27:00,VALID,918.998,VALID,0,VALID,94.9367,VALID,-0.101885,VALID,19.696,VALID,107,VALID,0.566295,
2001-08-14, 02:28:00,VALID,918.98,VALID,0,VALID,94.9571,VALID,-0.101885,VALID,19.6572,VALID,110,VALID,0.468328,
2001-08-14, 02:29:00,VALID,918.972,VALID,0,VALID,95.2152,VALID,-0.0339617,VALID,19.6105,VALID,118,VALID,0.525276,
2001-08-14, 02:30:00,VALID,918.953,VALID,0,VALID,95.5547,VALID,-0.0169808,VALID,19.6135,VALID,126,VALID,0.419643,
2001-08-14, 02:31:00,VALID,918.941,VALID,0,VALID,95.2712,VALID,0,VALID,19.5775,VALID,124,VALID,0.208734,
2001-08-14, 02:32:00,VALID,918.911,VALID,0,VALID,94.9965,VALID,0,VALID,19.5392,VALID,124,VALID,0.0137247,
2001-08-14, 02:33:00,VALID,918.892,VALID,0,VALID,95.1186,VALID,0,VALID,19.4873,VALID,123,VALID,0.0750411,
2001-08-14, 02:34:00,VALID,918.867,VALID,0,VALID,95.4695,VALID,0,VALID,19.4811,VALID,128,VALID,0.352902,
2001-08-14, 02:35:00,VALID,918.869,VALID,0,VALID,95.5191,VALID,0,VALID,19.4846,VALID,114,VALID,0.146835,
2001-08-14, 02:36:00,VALID,918.861,VALID,0,VALID,95.481,VALID,0,VALID,19.4553,VALID,108,VALID,0.0113636,
2001-08-14, 02:37:00,VALID,918.862,VALID,0,VALID,95.5,VALID,0,VALID,19.4389,VALID,108,VALID,0.0900608,
2001-08-14, 02:38:00,VALID,918.861,VALID,0,VALID,95.467,VALID,0.0169808,VALID,19.4262,VALID,108,VALID,0.154811,
2001-08-14, 02:39:00,VALID,918.846,VALID,0,VALID,95.6743,VALID,0,VALID,19.4036,VALID,108,VALID,0.1873,
2001-08-14, 02:40:00,VALID,918.866,VALID,0,VALID,95.7505,VALID,0,VALID,19.4135,VALID,108,VALID,0.0675781,
2001-08-14, 02:41:00,VALID,918.873,VALID,0,VALID,95.6781,VALID,-0.0169808,VALID,19.4006,VALID,108,VALID,0.00111607,
2001-08-14, 02:42:00,VALID,918.883,VALID,0,VALID,95.6526,VALID,0,VALID,19.3586,VALID,108,VALID,0.0116132,
2001-08-14, 02:43:00,VALID,918.884,VALID,0,VALID,95.1936,VALID,0.0169808,VALID,19.33,VALID,108,VALID,0.0611213,
2001-08-14, 02:44:00,VALID,918.871,VALID,0,VALID,94.4611,VALID,-0.0169808,VALID,19.1745,VALID,101,VALID,0.35558,
2001-08-14, 02:45:00,VALID,918.86,VALID,0,VALID,95.1771,VALID,0,VALID,19.1032,VALID,81,VALID,0.467147,
2001-08-14, 02:46:00,VALID,918.859,VALID,0,VALID,95.5814,VALID,-0.0169808,VALID,19.0813,VALID,88,VALID,0.592483,
2001-08-14, 02:47:00,VALID,918.861,VALID,0,VALID,95.9769,VALID,0,VALID,19.0754,VALID,92,VALID,0.743421,
2001-08-14, 02:48:00,VALID,918.859,VALID,0,VALID,96.2986,VALID,-0.0169808,VALID,19.0585,VALID,105,VALID,0.75558,
2001-08-14, 02:49:00,VALID,918.872,VALID,0,VALID,96.4487,VALID,0,VALID,19.0851,VALID,97,VALID,0.490385,
2001-08-14, 02:50:00,VALID,918.873,VALID,0,VALID,96.0723,VALID,-0.0339617,VALID,19.0751,VALID,77,VALID,0.477036,
2001-08-14, 02:51:00,VALID,918.883,VALID,0,VALID,95.7849,VALID,0,VALID,19.0269,VALID,71,VALID,0.371094,
2001-08-14, 02:52:00,VALID,918.886,VALID,0,VALID,95.9159,VALID,0,VALID,19.0004,VALID,59,VALID,0.507813,
2001-08-14, 02:53:00,VALID,918.864,VALID,0,VALID,96.2516,VALID,-0.0169808,VALID,18.9944,VALID,80,VALID,0.569511,
2001-08-14, 02:54:00,VALID,918.858,VALID,0,VALID,96.3889,VALID,-0.0679233,VALID,19.0043,VALID,88,VALID,0.516992,
2001-08-14, 02:55:00,VALID,918.852,VALID,0,VALID,96.5326,VALID,-0.0509425,VALID,19.0073,VALID,107,VALID,0.599777,
2001-08-14, 02:56:00,VALID,918.84,VALID,0,VALID,96.4703,VALID,0,VALID,19.0001,VALID,98,VALID,0.531672,
2001-08-14, 02:57:00,VALID,918.836,VALID,0,VALID,96.3647,VALID,-0.0509425,VALID,18.9745,VALID,96,VALID,0.423943,
2001-08-14, 02:58:00,VALID,918.846,VALID,0,VALID,96.1982,VALID,-0.0339617,VALID,18.9326,VALID,93,VALID,0.396205,
2001-08-14, 02:59:00,VALID,918.833,VALID,0,VALID,95.9235,VALID,-0.0509425,VALID,18.8754,VALID,80,VALID,0.599359,
2001-08-14, 03:00:00,VALID,918.823,VALID,0,VALID,96.5237,VALID,-0.0679233,VALID,18.8525,VALID,97,VALID,0.913007,
2001-08-14, 03:01:00,VALID,918.801,VALID,0,VALID,97.0463,VALID,-0.0509425,VALID,18.901,VALID,97,VALID,0.772204,
2001-08-14, 03:02:00,VALID,918.785,VALID,0,VALID,96.8975,VALID,-0.0679233,VALID,18.9139,VALID,93,VALID,0.842188,
2001-08-14, 03:03:00,VALID,918.751,VALID,0,VALID,97.0247,VALID,-0.0679233,VALID,18.9241,VALID,94,VALID,1.05028,
2001-08-14, 03:04:00,VALID,918.736,VALID,0,VALID,97.3083,VALID,-0.0849042,VALID,18.943,VALID,98,VALID,1.28433,
2001-08-14, 03:05:00,VALID,918.727,VALID,0,VALID,97.6033,VALID,-0.0679233,VALID,19.0078,VALID,94,VALID,0.960069,
2001-08-14, 03:06:00,VALID,918.719,VALID,0,VALID,97.5143,VALID,-0.0679233,VALID,19.0334,VALID,80,VALID,0.775082,
2001-08-14, 03:07:00,VALID,918.718,VALID,0,VALID,97.3388,VALID,-0.0679233,VALID,19.0237,VALID,85,VALID,0.759615,
2001-08-14, 03:08:00,VALID,918.724,VALID,0,VALID,97.2676,VALID,-0.0509425,VALID,19.0235,VALID,92,VALID,0.781641,
2001-08-14, 03:09:00,VALID,918.726,VALID,0,VALID,97.3464,VALID,-0.0849042,VALID,19.0334,VALID,95,VALID,0.688839,
2001-08-14, 03:10:00,VALID,918.716,VALID,0,VALID,97.279,VALID,-0.0339617,VALID,19.0244,VALID,96,VALID,0.607897,
2001-08-14, 03:11:00,VALID,918.723,VALID,0,VALID,96.9459,VALID,-0.0509425,VALID,18.9849,VALID,98,VALID,0.372243,
2001-08-14, 03:12:00,VALID,918.717,VALID,0,VALID,96.4347,VALID,-0.0509425,VALID,18.8855,VALID,80,VALID,0.411384,
2001-08-14, 03:13:00,VALID,918.702,VALID,0,VALID,96.8708,VALID,-0.101885,VALID,18.8401,VALID,88,VALID,0.60597,
2001-08-14, 03:14:00,VALID,918.686,VALID,0,VALID,96.7691,VALID,-0.0339617,VALID,18.8034,VALID,75,VALID,0.499367,
2001-08-14, 03:15:00,VALID,918.677,VALID,0,VALID,96.7933,VALID,0.0509425,VALID,18.7605,VALID,84,VALID,0.547492,
2001-08-14, 03:16:00,VALID,918.685,VALID,0,VALID,97.4431,VALID,0.0679233,VALID,18.79,VALID,105,VALID,0.739732,
2001-08-14, 03:17:00,VALID,918.679,VALID,0,VALID,97.6452,VALID,0.0339617,VALID,18.8384,VALID,101,VALID,0.793069,
2001-08-14, 03:18:00,VALID,918.659,VALID,0,VALID,97.4736,VALID,0.0169808,VALID,18.8417,VALID,100,VALID,0.447443,
2001-08-14, 03:19:00,VALID,918.642,VALID,0,VALID,97.2727,VALID,0,VALID,18.787,VALID,84,VALID,0.492622,
2001-08-14, 03:20:00,VALID,918.633,VALID,0,VALID,97.6567,VALID,0.0339617,VALID,18.7967,VALID,101,VALID,0.564556,
2001-08-14, 03:21:00,VALID,918.621,VALID,0,VALID,97.5829,VALID,0.0169808,VALID,18.8131,VALID,97,VALID,0.589343,
2001-08-14, 03:22:00,VALID,918.626,VALID,0,VALID,97.7495,VALID,0,VALID,18.8096,VALID,100,VALID,0.750781,
2001-08-14, 03:23:00,VALID,918.618,VALID,0,VALID,97.967,VALID,0.0169808,VALID,18.8419,VALID,107,VALID,0.782589,
2001-08-14, 03:24:00,VALID,918.614,VALID,0,VALID,97.6707,VALID,0.0339617,VALID,18.8417,VALID,116,VALID,0.377323,
2001-08-14, 03:25:00,VALID,918.62,VALID,0,VALID,97.1836,VALID,0.0509425,VALID,18.7448,VALID,133,VALID,0.563879,
2001-08-14, 03:26:00,VALID,918.623,VALID,0,VALID,97.3121,VALID,0.0509425,VALID,18.7065,VALID,133,VALID,0.711161,
2001-08-14, 03:27:00,VALID,918.629,VALID,0,VALID,97.7838,VALID,0.0169808,VALID,18.7358,VALID,134,VALID,0.748998,
2001-08-14, 03:28:00,VALID,918.647,VALID,0,VALID,97.9288,VALID,0,VALID,18.7773,VALID,139,VALID,0.748733,
2001-08-14, 03:29:00,VALID,918.667,VALID,0,VALID,97.6936,VALID,0.0169808,VALID,18.7939,VALID,139,VALID,0.694079,
2001-08-14, 03:30:00,VALID,918.676,VALID,0,VALID,97.5283,VALID,0,VALID,18.7716,VALID,145,VALID,0.749554,
2001-08-14, 03:31:00,VALID,918.701,VALID,0,VALID,97.6389,VALID,0,VALID,18.7644,VALID,142,VALID,0.739583,
2001-08-14, 03:32:00,VALID,918.689,VALID,0,VALID,97.6643,VALID,0,VALID,18.7877,VALID,135,VALID,0.672348,